OPS 4682 DEB, 38450

Orbit data source: Space-Track

OPS 4682 DEB, 38450 is space debris in LEO originally from a launch on Sat, 03 Apr 1965 UTC launched from the Air Force Western Test Range (AFWTR). Debris objects in space refer to the collection of defunct objects orbiting the Earth. Examples of debris include non-operational satellites, rocket bodies, and fragments generated from explosions, collisions, or faulty payload assembly.

Loading next visibility...
Identifier
38450, 1965-027FF
Orbit
LEO
Country
Flag of USUS
Related business
Manufacturer
Unknown
Mission
Spacecraft
Bus & Motor
Unknown
Mass
Unknown
Launch date (UTC)
1965-04-03 (61 years ago)
Launch vehicle
Unknown
Launch site
Air Force Western Test Range (AFWTR)
Object type
Payload
Rocket body
Debris
Shape & HBR
Unknown shape, 0.1 m
Radar Cross Section
Small (<0.1 m²)

Expand to show TLE details & history
Last TLE update: 5 days ago

TLE from 5 days ago
0 OPS 4682 DEB
1 38450U 65027FF  26130.10078641  .00000891  00000-0  29150-2 0  9996
2 38450  90.2406   6.4946 0027458 352.1071   7.9616 13.00465448627163
Epoch: 2026-05-10T02:25Z
TLE epoch observation values (Epoch: 2026-05-10T02:25:07.945Z)
Latitude
-0°
Longitude
102.30279°
Altitude
1,242.374 km
Speed
7.244 km/s
True Right ascension
00h 25m 58s
True Declination
0° 00' 00"
Sunlit
Object was in daylight at epoch
Visualization orbit readout
Latitude
Unknown
Longitude
Unknown
Altitude
Unknown
Speed
Unknown
Apparent Right ascension
Unknown
Apparent Declination
Unknown
Sunlit
N/A
Visualization observer readout
Local Sidereal Time
19:55:01
Azimuth
Unknown
Elevation
Unknown
Doppler factor
Unknown
Orbital elements
Apogee altitude
1,278.355 km
Perigee altitude
1,236.424 km
Semi-major axis
7,635.527 km
Eccentricity
0.00275
Inclination
90.2406°
RAAN
6.4946°
Arg. of periapsis
352.1071°
True anomaly
8.00533°
Mean anomaly
7.9616°
Eccentric anomaly
7.98345°
Mean motion
3.253 °/min
Orbital period
110.67 mins
BSTAR
0.002915
Loading maneuver chart data...
Computing Atmospheric mass density...
Loading historical data...
Loading historical data...
Loading historical data...
Loading historical data...
Loading historical data...
Loading historical data...
Loading historical data...

Documentation

Showing up to 5 results
|